[[{"header":{"parameterUnit":"m.s-1","parameterCategory":1,"la1":30.2992,"la2":30.254,"lo1":-89.0895,"lo2":-89.0443,"dy":0.0025,"dx":0.0025,"nx":19,"ny":19,"refTime":"2026-03-14T21:00:00:Z","depth":0,"parameterNumber":2,"parameterNumberName":"U-component_of_WINDS"},"data":[0,0,0,-1.075,-1.0754,-1.0982,-1.0983,-1.1231,-1.1233,0,0,0,0,0,0,0,0,0,0,0,-1.0656,-1.0657,-1.075,-1.0755,-1.0982,-1.0983,-1.1231,-1.1233,0,0,0,0,0,0,0,0,0,0,0,-1.0655,-1.0656,-1.0657,-1.0755,-1.0981,-1.0983,-1.123,-1.1074,0,0,0,0,0,0,0,0,0,0,-1.0861,-1.0747,-1.0656,-1.0657,-1.0756,-1.0981,-1.0983,-1.1067,-1.1084,-1.1109,0,-1.1124,0,-1.1182,-1.1247,-1.1247,0,0,0,-1.0775,-1.0733,-1.0819,-1.0657,-1.0758,-1.0981,-1.0885,-1.1077,-1.1096,-1.1131,-1.1128,-1.1139,-1.1186,-1.1248,-1.1249,-1.1326,-1.1326,0,0,-1.0762,-1.0683,-1.0806,-1.0829,-1.0791,-1.0877,-1.0892,-1.1089,-1.1081,-1.1129,-1.1145,-1.119,-1.1249,-1.1251,-1.1327,-1.1326,0,0,0,-1.0712,-1.0673,-1.0755,-1.0818,-1.0862,-1.0883,-1.09,-1.1072,-1.1106,-1.1148,-1.1193,-1.1251,-1.1253,-1.1328,-1.1327,-1.1218,0,0,0,-1.0706,-1.0644,-1.0748,-1.0701,-1.0858,-1.097,-1.0878,-1.1092,-1.1117,-1.1192,-1.1251,-1.1255,-1.1329,-1.1327,-1.1223,-1.1179,0,0,0,-1.065,-1.0638,-1.0661,-1.0697,-1.0791,-1.0969,-1.1014,-1.1099,-1.1143,-1.1248,-1.1256,-1.1329,-1.1328,-1.1227,-1.1186,-1.1175,0,0,0,-1.0568,-1.0563,-1.0658,-1.0671,-1.0789,-1.09,-1.1014,-1.1101,-1.1177,-1.1252,-1.1329,-1.1327,-1.1228,-1.1191,-1.1178,-1.1148,-1.1129,0,0,-1.0517,-1.0554,-1.0568,-1.066,-1.0732,-1.0872,-1.093,-1.1077,-1.1161,-1.1267,-1.127,-1.1221,-1.1187,-1.1175,-1.1053,-1.1036,0,0,0,-1.0524,-1.0532,-1.057,-1.0638,-1.0749,-1.0841,-1.0988,-1.1042,-1.1136,-1.1198,-1.1218,-1.12,-1.1197,-1.1186,-1.1172,-1.1174,-1.1319,-1.1319,-1.132,-1.0336,-1.0443,-1.0472,-1.0606,-1.0671,-1.0822,-1.0885,-1.0985,-1.1075,-1.1077,-1.1108,-1.1021,-1.1005,-1.0996,-1.0996,-1.1104,-1.1103,-1.1103,-1.1103,-1.0269,-1.0297,-1.0417,-1.0487,-1.06,-1.0662,-1.0807,-1.0868,-1.0942,-1.1006,-1.1009,-1.1067,-1.0975,-1.098,-1.1096,-1.1097,-1.1098,-1.1099,-1.1099,-1.0156,-1.0187,-1.0254,-1.0364,-1.0437,-1.0575,-1.0639,-1.0742,-1.0839,-1.0841,-1.0884,-1.0886,-1.0899,-1.0855,-1.0855,-1.0854,-1.0854,-1.0854,-1.0854,-1.001,-1.0089,-1.013,-1.0247,-1.0304,-1.0393,-1.0545,-1.0606,-1.0698,-1.0767,-1.0768,-1.0856,-1.0947,-1.0965,-1.0849,-1.085,-1.0851,-1.0851,-1.0851,-0.9897,-0.9939,-1.0002,-1.0059,-1.0206,-1.0271,-1.0402,-1.0515,-1.058,-1.0608,-1.0697,-1.0748,-1.0793,-1.0805,-1.0821,-1.0675,-1.0675,-1.0675,-1.0675,-0.9799,-0.9833,-0.9919,-1.0004,-1.0099,-1.0223,-1.0292,-1.041,-1.054,-1.0587,-1.0624,-1.0655,-1.0663,-1.0704,-1.0717,-1.0734,-1.0569,-1.0569,-1.0569,-0.9735,-0.9782,-0.9819,-0.9945,-1.0068,-1.0171,-1.0238,-1.0331,-1.0488,-1.0567,-1.0625,-1.063,-1.0682,-1.0694,-1.0769,-1.0788,-1.0821,0,0]},{"header":{"parameterUnit":"m.s-1","parameterCategory":1,"la1":30.2992,"la2":30.254,"lo1":-89.0895,"lo2":-89.0443,"dy":0.0025,"dx":0.0025,"nx":19,"ny":19,"refTime":"2026-03-14T21:00:00:Z","depth":0,"parameterNumber":3,"parameterNumberName":"V-component_of_WINDS"},"data":[0,0,0,5.9103,5.9104,5.917,5.9171,5.9253,5.9254,0,0,0,0,0,0,0,0,0,0,0,5.9084,5.9085,5.9103,5.9104,5.917,5.9171,5.9253,5.9254,0,0,0,0,0,0,0,0,0,0,0,5.9084,5.9085,5.9086,5.9105,5.917,5.9171,5.9253,5.9203,0,0,0,0,0,0,0,0,0,0,5.9139,5.9124,5.9085,5.9086,5.9105,5.917,5.9171,5.9201,5.9206,5.9223,0,5.9241,0,5.9249,5.926,5.926,0,0,0,5.9103,5.9119,5.9137,5.9086,5.9106,5.917,5.914,5.9204,5.921,5.9231,5.9242,5.9245,5.9251,5.926,5.9261,5.9372,5.9372,0,0,5.9099,5.9096,5.9132,5.9141,5.9133,5.9138,5.9142,5.9208,5.9219,5.9243,5.9247,5.9252,5.9261,5.9262,5.9371,5.9372,0,0,0,5.909,5.9094,5.9109,5.9137,5.915,5.914,5.9145,5.9216,5.9222,5.9248,5.9253,5.9261,5.9262,5.9371,5.9371,5.94,0,0,0,5.9087,5.9088,5.9108,5.9107,5.9148,5.9184,5.9152,5.9217,5.9225,5.9253,5.9261,5.9263,5.937,5.9371,5.9398,5.9413,0,0,0,5.908,5.9087,5.9098,5.9106,5.9135,5.9183,5.9192,5.9219,5.9228,5.926,5.9263,5.9369,5.9371,5.9396,5.941,5.9442,0,0,0,5.907,5.912,5.9098,5.9156,5.9135,5.9201,5.9192,5.9241,5.9272,5.9262,5.937,5.9371,5.9395,5.9408,5.944,5.9469,5.9481,0,0,5.9132,5.9128,5.9162,5.9144,5.9215,5.9191,5.9265,5.9294,5.9298,5.9346,5.9349,5.9398,5.941,5.9442,5.9548,5.9558,0,0,0,5.9181,5.9206,5.9225,5.9256,5.9282,5.9305,5.9324,5.9335,5.9377,5.9323,5.9419,5.9425,5.9444,5.9458,5.9466,5.9482,5.9378,5.9378,5.9377,5.9264,5.9269,5.9326,5.934,5.937,5.939,5.9415,5.9433,5.9427,5.9449,5.9463,5.9528,5.9544,5.955,5.9567,5.9479,5.9479,5.9479,5.9479,5.9355,5.9391,5.9385,5.9438,5.9443,5.9486,5.9508,5.9502,5.9543,5.9517,5.9534,5.9506,5.9561,5.9575,5.9482,5.9481,5.9481,5.9481,5.948,5.941,5.9428,5.9443,5.949,5.9525,5.9535,5.9575,5.9577,5.9578,5.9595,5.961,5.961,5.9609,5.9602,5.9602,5.9603,5.9603,5.9603,5.9603,5.9461,5.9477,5.9512,5.9545,5.9566,5.9593,5.9615,5.9634,5.9656,5.9654,5.9654,5.9646,5.9566,5.9545,5.9607,5.9606,5.9606,5.9605,5.9605,5.9551,5.9532,5.9586,5.9607,5.9646,5.9681,5.9683,5.9723,5.974,5.9759,5.9748,5.9688,5.9683,5.9676,5.966,5.9747,5.9747,5.9747,5.9747,5.9597,5.9596,5.9652,5.9686,5.9719,5.9728,5.9786,5.9804,5.9818,5.9828,5.9815,5.9793,5.9787,5.9785,5.9777,5.9761,5.9872,5.9872,5.9872,5.9653,5.9655,5.9706,5.9723,5.9754,5.978,5.9835,5.9872,5.9884,5.9877,5.9836,5.983,5.9795,5.9783,5.9774,5.9761,5.9732,0,0]}]]